CZ-6A DEB

Satellite information

Favourite Embed

Satellite Type and Status

DEBRISIN ORBIT

Key statistics

Satellite CZ-6A DEB at a glance.

Uptime

1129

Days in orbit

Revolutions

≈ 14.2

Per day

Orbit

SSO

Sun Synchronous Orbit

Inclination

98.8

Latest

Satellite identification and parameters

Extended collection of information and parameters for CZ-6A DEB.

Object identification

Identified? True

Debris? True

Object name: CZ-6A DEB

International designator: 2022-151AB

Object number (NORAD): 54284

Object ID (CCSDS): 54284

Country: PEOPLES REPUBLIC OF CHINA (PRC)

Current information (Y/N): Y

RCS size: SMALL

Orbital parameters

Period: 101.693 minutes

Inclination: 98.8288 deg

SMA: 7216.944 km

Apoapsis: 870.106 km

Periapsis: 807.512 km

RAAN: 350.0891 deg

Eccentricy: 0.00433661

Argument of periapsis: 128.6737 deg

Mean anomaly: 231.8329 deg

Mean motion: 14.16030925 rev/day

Mean motion (dot): 0.00003066 rev/day2

B* drag term: 0.0015612414 1/REarth

Two-line elements (TLE)

Creation date: Dec. 14, 2025, 3:07 a.m.

Reference frame: TEME

Reference center: EARTH

Epoch: Dec. 13, 2025, 12:30 p.m. UTC

TLE line 0: 0 CZ-6A DEB

TLE line 1: 1 54284U 22151AB 25347.52136097 .00003066 00000-0 15612-2 0 9990

TLE line 2: 2 54284 98.8288 350.0891 0043366 128.6737 231.8329 14.16030925158542

Live tracking on map

Real-time ground track for satellite CZ-6A DEB.

In-orbit conjunctions

A list of the most updated potential collisions computed for object CZ-6A DEB.

Target Orbit TCA Probability of collision Miss distance Type
SL-16 DEB LEO 2025-10-22 05:47:22 0.0005607638 16.0 (m) DEBRIS
CZ-6A DEB LEO 2025-01-08 02:21:15 0.0001326849 859.0 (m) DEBRIS

Associated space launch

Chinese satellite reported for atmospheric/ocean/environmental/spatial parameter research purposes, details TBD.

CZ-6A DEB was lifted into orbit during the mission ‘Long March 6A | Yunhai 3’, on board a Long March 6A space rocket.

The launch took place on Nov. 11, 2022, 10:52 p.m. from Launch Complex 9A.

For more information about the launch, click the button.

Launch to space Long March 6A | Yunhai 3
Long March 6A | Yunhai 3

Agency: N/A

Status: Launch Successful

Launch date: Nov. 11, 2022, 10:52 p.m. UTC

Rocket: Long March 6A

Launch pad: Launch Complex 9A

Location: Taiyuan Satellite Launch Center, People's Republic of China

...

Latest news about this satellite

There are no fresh news available about this satellite. Check back as we update our databases every day.


Newsletter sign-up

Weekly statistics, charts and insights to help you stay on top of the space industry.